Regional Weather Roundup
Issued by NWS

Home | Current Version | Previous Version | Text Only | Print | Product List | Glossary Off
Versions: 1 2 3 4 5 6 7 8 9 10 11 12 13 14 15 16 17 18 19 20 21 22 23 24 25 26 27 28 29 30 31 32 33 34 35 36 37 38 39 40 41 42 43 44 45 46 47 48 49 50

000
ASUS43 KOAX 010802
RWRNE

WEATHER ROUNDUP FOR NEBRASKA
NATIONAL WEATHER SERVICE OMAHA NE
200 AM CST SUN MAR 01 2015

NOTES: SATELLITE DATA IS BEING USED TO AUGMENT CLOUD COVER ABOVE
       12000 FEET.
       "FAIR" INDICATES FEW OR NO CLOUDS BELOW 12,000 FEET WITH NO
       SIGNIFICANT WEATHER AND/OR OBSTRUCTIONS TO VISIBILITY.

  * THESE STATIONS DO NOT REPORT WEATHER SUCH AS RAIN...SNOW OR FOG.

NEZ001>004-019>022-054>056-010900-
NEBRASKA PANHANDLE

CITY           SKY/WX    TMP DP  RH WIND       PRES   REMARKS
SCOTTSBLUFF    CLOUDY    23  13  65 NE6       30.11R WCI  16
ALLIANCE       CLOUDY    18  10  71 NE9       30.12R WCI   7
CHADRON        CLOUDY    19  10  68 N8        30.20R WCI   9
KIMBALL        CLOUDY    20  17  87 CALM      30.03R
SIDNEY         CLOUDY    20  14  77 S5        30.10R WCI  13
$$

NEZ057>060-069>072-079>082-010900-
SOUTHWEST NEBRASKA

CITY           SKY/WX    TMP DP  RH WIND       PRES   REMARKS
NORTH PLATTE   CLOUDY    17  12  80 CALM      30.20R
IMPERIAL         N/A     18  11  74 SE5       30.16R WCI  11
LEXINGTON      PTCLDY    15  12  88 CALM      30.22R
MCCOOK         CLOUDY    21  15  78 S5        30.21R WCI  15
$$

NEZ005>010-023>029-035>040-094-010900-
NORTH CENTRAL NEBRASKA

CITY           SKY/WX    TMP DP  RH WIND       PRES   REMARKS
VALENTINE      MOCLDY    17   5  59 NE3       30.23R
AINSWORTH      PTCLDY    15   6  65 NW5       30.21S WCI   8
BROKEN BOW     PTCLDY    17  12  80 CALM      30.21R
ORD            PTCLDY    12   7  80 CALM      30.24R
$$

NEZ041-046>049-061>064-073>077-083>087-010900-
SOUTH CENTRAL NEBRASKA

CITY           SKY/WX    TMP DP  RH WIND       PRES   REMARKS
GRAND ISLAND   PTCLDY    16  12  84 S8        30.27F WCI   5
AURORA         PTCLDY    13  10  87 SW5       30.27F WCI   6
HASTINGS       PTCLDY    14  11  87 S6        30.25F WCI   5
HEBRON         MOCLDY    19  15  84 S3        30.32F
HOLDREGE       MOCLDY    17  14  89 S3        30.22S
KEARNEY *      CLEAR     14  10  85 SW7       30.24S WCI   4
$$

NEZ011>018-030>034-042>045-010900-
NORTHEAST NEBRASKA

CITY           SKY/WX    TMP DP  RH WIND       PRES   REMARKS
NORFOLK        PTCLDY    15  12  88 SW9       30.27S WCI   3
ALBION         CLEAR     13   9  83 CALM      30.27S
BLAIR          CLOUDY    22  15  76 SW9       30.32S WCI  12
COLUMBUS *     PTCLDY    16   7  67 SW5       30.31F WCI   9
FREMONT        CLEAR     19  14  80 S5        30.33S WCI  12
TEKAMAH        CLEAR     12   8  84 S6        30.35R WCI   3
$$

NEZ050>053-065>068-078-088>093-010900-
SOUTHEAST NEBRASKA

CITY           SKY/WX    TMP DP  RH WIND       PRES   REMARKS
LINCOLN        CLOUDY    21  14  74 W8        30.35S WCI  11
OMAHA EPPLEY   CLOUDY    23  15  71 SW10      30.36S WCI  12
BEATRICE       CLOUDY    21  18  86 SW3       30.33F
FALLS CITY     CLOUDY    19  16  88 CALM      30.36F
NEBRASKA CITY  CLOUDY    21  17  83 S3        30.35S
$$

NEZ044-045-051>053-067-010900-
OMAHA AREA

CITY           SKY/WX    TMP DP  RH WIND       PRES   REMARKS
OMAHA EPPLEY   CLOUDY    23  15  71 SW10      30.36S WCI  12
BLAIR          CLOUDY    22  15  76 SW9       30.32S WCI  12
FREMONT        CLEAR     19  14  80 S5        30.33S WCI  12
OFFUTT AFB     CLOUDY    22  15  74 SW6       30.34S WCI  15
WAHOO          FAIR      19  13  79 CALM      30.34R
$$


USA.gov is the U.S. government's official web portal to all federal, state and local government web resources and services.